TimeCDT,TemperatureF,Dew PointF,Humidity,Sea Level PressureIn,VisibilityMPH,Wind Direction,Wind SpeedMPH,Gust SpeedMPH,PrecipitationIn,Events,Conditions,WindDirDegrees,DateUTC
12:15 AM,64.8,58.8,81,30.06,10.0,Calm,Calm,-,N/A,,Clear,0,2013-06-20 05:15:00
12:35 AM,64.9,58.3,79,30.06,10.0,Calm,Calm,-,N/A,,Clear,0,2013-06-20 05:35:00
12:55 AM,64.4,58.1,80,30.07,10.0,Calm,Calm,-,N/A,,Clear,0,2013-06-20 05:55:00
1:15 AM,64.8,57.6,77,30.07,10.0,Calm,Calm,-,N/A,,Clear,0,2013-06-20 06:15:00
1:35 AM,64.2,57.6,79,30.07,10.0,Calm,Calm,-,N/A,,Clear,0,2013-06-20 06:35:00
1:55 AM,64.2,58.8,83,30.07,10.0,Calm,Calm,-,N/A,,Clear,0,2013-06-20 06:55:00
2:15 AM,63.5,57.9,82,30.07,10.0,Calm,Calm,-,N/A,,Mostly Cloudy,0,2013-06-20 07:15:00
2:35 AM,64.8,57.2,76,30.08,10.0,Calm,Calm,-,N/A,,Mostly Cloudy,0,2013-06-20 07:35:00
2:55 AM,65.5,56.8,74,30.08,10.0,Calm,Calm,-,N/A,,Overcast,0,2013-06-20 07:55:00
3:15 AM,65.5,57.2,75,30.08,10.0,East,3.5,-,N/A,,Overcast,90,2013-06-20 08:15:00
3:35 AM,66.2,57.2,73,30.08,10.0,East,3.5,-,N/A,,Overcast,80,2013-06-20 08:35:00
3:55 AM,66.4,57.0,72,30.08,10.0,East,4.6,-,N/A,,Overcast,90,2013-06-20 08:55:00
4:15 AM,66.2,57.2,73,30.08,10.0,East,3.5,-,N/A,,Overcast,80,2013-06-20 09:15:00
4:35 AM,66.0,57.2,73,30.07,10.0,East,4.6,-,N/A,,Scattered Clouds,80,2013-06-20 09:35:00
4:55 AM,65.8,56.8,73,30.07,10.0,East,5.8,-,N/A,,Scattered Clouds,80,2013-06-20 09:55:00
5:15 AM,65.7,57.2,74,30.07,10.0,ENE,4.6,-,N/A,,Mostly Cloudy,70,2013-06-20 10:15:00
5:35 AM,65.5,57.0,74,30.08,10.0,ENE,5.8,-,N/A,,Mostly Cloudy,70,2013-06-20 10:35:00
5:55 AM,66.2,56.5,71,30.08,10.0,East,3.5,-,N/A,,Scattered Clouds,80,2013-06-20 10:55:00
6:15 AM,66.2,56.8,72,30.08,10.0,East,5.8,-,N/A,,Clear,80,2013-06-20 11:15:00
6:35 AM,66.6,57.2,72,30.08,10.0,East,4.6,-,N/A,,Clear,100,2013-06-20 11:35:00
6:55 AM,68.0,57.0,68,30.08,10.0,East,5.8,-,N/A,,Clear,90,2013-06-20 11:55:00
7:15 AM,68.7,57.6,67,30.08,10.0,East,4.6,-,N/A,,Clear,100,2013-06-20 12:15:00
7:35 AM,69.8,57.9,66,30.09,10.0,East,5.8,-,N/A,,Scattered Clouds,100,2013-06-20 12:35:00
7:55 AM,70.7,58.5,65,30.09,10.0,East,5.8,-,N/A,,Scattered Clouds,100,2013-06-20 12:55:00
8:15 AM,72.0,58.5,62,30.09,10.0,SE,4.6,-,N/A,,Clear,130,2013-06-20 13:15:00
8:35 AM,73.2,58.1,59,30.09,10.0,ESE,5.8,-,N/A,,Scattered Clouds,120,2013-06-20 13:35:00
8:55 AM,74.8,58.3,56,30.09,10.0,ESE,4.6,-,N/A,,Clear,120,2013-06-20 13:55:00
9:15 AM,76.1,58.3,54,30.09,10.0,SE,3.5,-,N/A,,Clear,140,2013-06-20 14:15:00
9:35 AM,77.0,59.2,54,30.09,10.0,SSW,3.5,-,N/A,,Clear,210,2013-06-20 14:35:00
9:55 AM,78.3,58.5,50,30.09,10.0,SSE,4.6,-,N/A,,Scattered Clouds,150,2013-06-20 14:55:00
10:15 AM,78.8,59.2,51,30.09,10.0,South,5.8,-,N/A,,Scattered Clouds,170,2013-06-20 15:15:00
10:35 AM,78.6,58.6,50,30.09,10.0,SE,5.8,-,N/A,,Scattered Clouds,140,2013-06-20 15:35:00
10:55 AM,80.4,57.7,46,30.09,10.0,SE,5.8,-,N/A,,Scattered Clouds,130,2013-06-20 15:55:00
11:15 AM,81.1,55.8,42,30.08,10.0,SSE,9.2,-,N/A,,Clear,150,2013-06-20 16:15:00
11:35 AM,81.5,54.3,39,30.08,10.0,SSE,10.4,-,N/A,,Clear,150,2013-06-20 16:35:00
11:55 AM,82.0,56.1,41,30.07,10.0,SSE,11.5,-,N/A,,Scattered Clouds,160,2013-06-20 16:55:00
12:15 PM,82.9,55.9,39,30.06,10.0,SE,11.5,-,N/A,,Scattered Clouds,130,2013-06-20 17:15:00
12:35 PM,84.0,57.0,40,30.06,10.0,SSE,9.2,-,N/A,,Clear,160,2013-06-20 17:35:00
12:55 PM,84.7,56.5,38,30.06,10.0,ESE,9.2,-,N/A,,Clear,120,2013-06-20 17:55:00
1:15 PM,85.3,54.7,35,30.06,10.0,SSE,5.8,-,N/A,,Clear,150,2013-06-20 18:15:00
1:35 PM,85.5,54.3,34,30.06,10.0,South,10.4,16.1,N/A,,Clear,170,2013-06-20 18:35:00
1:55 PM,86.4,55.0,34,30.05,10.0,SSE,8.1,16.1,N/A,,Clear,160,2013-06-20 18:55:00
2:15 PM,86.4,55.2,34,30.04,10.0,SE,10.4,-,N/A,,Clear,140,2013-06-20 19:15:00
2:35 PM,86.2,55.2,35,30.04,10.0,SE,9.2,16.1,N/A,,Clear,130,2013-06-20 19:35:00
2:55 PM,86.4,55.2,34,30.04,10.0,ESE,11.5,-,N/A,,Clear,120,2013-06-20 19:55:00
3:15 PM,87.3,55.0,33,30.03,10.0,SSE,9.2,-,N/A,,Clear,160,2013-06-20 20:15:00
3:35 PM,87.3,54.9,33,30.02,10.0,SE,15.0,19.6,N/A,,Clear,130,2013-06-20 20:35:00
3:55 PM,87.3,54.9,33,30.02,10.0,SE,10.4,17.3,N/A,,Clear,140,2013-06-20 20:55:00
4:15 PM,87.6,54.7,32,30.01,10.0,SE,13.8,18.4,N/A,,Clear,140,2013-06-20 21:15:00
4:35 PM,87.6,55.4,33,30.00,10.0,SE,9.2,17.3,N/A,,Clear,140,2013-06-20 21:35:00
4:55 PM,87.4,55.0,33,29.99,10.0,SSE,10.4,16.1,N/A,,Clear,150,2013-06-20 21:55:00
5:15 PM,87.4,55.8,34,29.99,10.0,SSE,6.9,-,N/A,,Clear,150,2013-06-20 22:15:00
5:35 PM,87.4,56.1,34,30.00,10.0,SE,6.9,-,N/A,,Clear,140,2013-06-20 22:35:00
5:55 PM,86.9,55.6,34,29.99,10.0,SE,6.9,-,N/A,,Scattered Clouds,130,2013-06-20 22:55:00
6:15 PM,86.4,57.0,37,29.98,10.0,SE,6.9,-,N/A,,Clear,140,2013-06-20 23:15:00
6:35 PM,86.2,57.2,37,29.98,10.0,SE,8.1,-,N/A,,Clear,130,2013-06-20 23:35:00
6:55 PM,86.0,57.7,38,29.97,10.0,SE,6.9,-,N/A,,Clear,130,2013-06-20 23:55:00
7:15 PM,85.3,58.1,40,29.98,10.0,SE,5.8,-,N/A,,Clear,130,2013-06-21 00:15:00
7:35 PM,84.4,58.8,42,29.98,10.0,ESE,5.8,-,N/A,,Scattered Clouds,120,2013-06-21 00:35:00
7:55 PM,83.3,58.8,43,29.98,10.0,ESE,5.8,-,N/A,,Mostly Cloudy,120,2013-06-21 00:55:00
8:15 PM,82.9,58.6,44,29.98,10.0,ESE,5.8,-,N/A,,Scattered Clouds,120,2013-06-21 01:15:00
8:35 PM,81.1,59.7,48,29.98,10.0,ESE,5.8,-,N/A,,Clear,110,2013-06-21 01:35:00
8:55 PM,79.5,60.4,52,29.99,10.0,East,5.8,-,N/A,,Scattered Clouds,100,2013-06-21 01:55:00
9:15 PM,77.9,61.0,56,29.99,10.0,East,8.1,-,N/A,,Scattered Clouds,100,2013-06-21 02:15:00
9:35 PM,76.8,61.7,59,29.99,10.0,East,6.9,-,N/A,,Clear,100,2013-06-21 02:35:00
9:55 PM,76.5,61.3,59,30.00,10.0,ESE,6.9,-,N/A,,Clear,110,2013-06-21 02:55:00
10:15 PM,76.1,61.2,60,30.00,10.0,ESE,8.1,-,N/A,,Clear,110,2013-06-21 03:15:00
10:35 PM,76.1,61.0,59,30.00,10.0,East,6.9,-,N/A,,Mostly Cloudy,100,2013-06-21 03:35:00
10:55 PM,75.7,61.2,60,30.01,10.0,ESE,6.9,-,N/A,,Mostly Cloudy,110,2013-06-21 03:55:00
11:15 PM,76.1,61.0,59,30.01,10.0,ESE,6.9,-,N/A,,Overcast,110,2013-06-21 04:15:00
11:35 PM,76.5,60.1,57,30.01,10.0,ESE,6.9,-,N/A,,Scattered Clouds,120,2013-06-21 04:35:00
11:55 PM,77.9,59.7,53,30.01,10.0,SE,6.9,-,N/A,,Mostly Cloudy,130,2013-06-21 04:55:00